Change the Weather History Date:

Saturday, November 16, 2013

  Actual Average (KLWV) Record (KLWV)
Temperature  
Mean Temperature 58 °F 46 °F  
Max Temperature 65 °F 56 °F 74 °F (1990)
Min Temperature 50 °F 37 °F 19 °F (1997)
Degree Days  
Heating Degree Days 8 19  
Month to date heating degree days 251  
Since 1 July heating degree days 548  
Cooling Degree Days 0 0  
Month to date cooling degree days 0  
Year to date cooling degree days 1386  
Growing Degree Days 8 (Base 50)    
Moisture  
Dew Point 54 °F    
Average Humidity 86    
Maximum Humidity 97    
Minimum Humidity 68    
Precipitation  
Precipitation 0.03 in 0.14 in 2.18 in (1989)
Month to date precipitation 2.00  
Year to date precipitation 38.52  
Sea Level Pressure  
Sea Level Pressure 29.92 in    
Wind  
Wind Speed 13 mph (South)    
Max Wind Speed 23 mph    
Max Gust Speed 30 mph    
Visibility 8 miles    
Events Rain , Thunderstorm    
T = Trace of Precipitation, MM = Missing Value Source: NWS Daily Summary

Daily Weather History Graph

Daily Weather History Graph

Search for Another Location

Airport or City:

Trip Planner

Search our weather history database for the weather conditions in past years. The results will help you decide how hot, cold, wet, or windy it might be!

Date:

Astronomy

Nov. 16, 2013 Rise Set
Actual Time 6:34 AM CST 4:35 PM CST
Civil Twilight 6:06 AM CST 5:04 PM CST
Nautical Twilight 5:33 AM CST 5:36 PM CST
Astronomical Twilight 5:02 AM CST 6:08 PM CST
Moon 4:10 PM CST (11/16) 5:31 AM CST (11/16)
Length of Visible Light 10h 57m
Length of Day
10h 00m
Waxing Gibbous, 99% of the Moon is Illuminated
Nov 16
Waxing Gibbous
Nov 17
Full
Nov 25
Last Quarter
Dec 2
New
Dec 9
First Quarter

Hourly Weather History & Observations

Time (CST) Temp. Dew Point Humidity Pressure Visibility Wind Dir Wind Speed Gust Speed Precip Events Conditions
12:15 AM 50.2 °F 46.6 °F 87% 30.05 in 10.0 mi South 9.2 mph - N/A   Overcast
12:35 AM 50.0 °F 46.8 °F 89% 30.04 in 10.0 mi South 6.9 mph - N/A   Overcast
12:55 AM 50.0 °F 46.9 °F 89% 30.04 in 10.0 mi South 8.1 mph - N/A   Overcast
1:15 AM 50.0 °F 46.9 °F 89% 30.03 in 10.0 mi South 8.1 mph - N/A   Overcast
1:35 AM 50.2 °F 47.3 °F 90% 30.03 in 10.0 mi South 9.2 mph - N/A   Overcast
1:55 AM 50.7 °F 47.8 °F 90% 30.03 in 10.0 mi South 10.4 mph - N/A   Overcast
2:15 AM 50.9 °F 48.2 °F 90% 30.03 in 7.0 mi South 10.4 mph - N/A   Overcast
2:35 AM 50.9 °F 48.4 °F 91% 30.03 in 5.0 mi South 10.4 mph - N/A   Overcast
2:55 AM 50.9 °F 48.7 °F 92% 30.03 in 5.0 mi South 12.7 mph - N/A   Overcast
3:15 AM 50.4 °F 49.1 °F 95% 30.02 in 4.0 mi South 11.5 mph - N/A   Overcast
3:35 AM 50.5 °F 49.3 °F 95% 30.02 in 3.0 mi South 13.8 mph 20.7 mph N/A   Overcast
3:55 AM 50.7 °F 49.5 °F 95% 30.03 in 4.0 mi South 15.0 mph - N/A   Overcast
4:15 AM 50.9 °F 49.6 °F 95% 30.02 in 3.0 mi South 15.0 mph - N/A   Overcast
4:35 AM 50.9 °F 49.8 °F 96% 30.02 in 4.0 mi South 12.7 mph 18.4 mph N/A   Overcast
4:55 AM 51.1 °F 50.0 °F 96% 30.02 in 4.0 mi South 11.5 mph - N/A   Overcast
5:15 AM 50.9 °F 50.0 °F 97% 30.02 in 3.0 mi South 10.4 mph - N/A   Overcast
5:35 AM 51.1 °F 50.2 °F 97% 30.02 in 3.0 mi South 10.4 mph - N/A   Overcast
5:55 AM 51.3 °F 50.4 °F 97% 30.02 in 4.0 mi South 10.4 mph - N/A   Overcast
6:15 AM 51.8 °F 50.5 °F 95% 30.02 in 4.0 mi South 9.2 mph - N/A   Overcast
6:35 AM 52.0 °F 50.9 °F 96% 30.02 in 4.0 mi South 11.5 mph 17.3 mph N/A   Overcast
6:55 AM 52.3 °F 50.9 °F 95% 30.03 in 5.0 mi South 11.5 mph 19.6 mph N/A   Overcast
7:15 AM 52.7 °F 51.1 °F 94% 30.03 in 3.0 mi SSE 13.8 mph - N/A   Overcast
7:35 AM 52.7 °F 51.1 °F 94% 30.03 in 3.0 mi South 13.8 mph - N/A   Overcast
7:55 AM 53.1 °F 51.3 °F 94% 30.03 in 4.0 mi SSE 16.1 mph 19.6 mph N/A   Overcast
8:15 AM 53.4 °F 51.3 °F 92% 30.02 in 5.0 mi SSE 15.0 mph - N/A   Overcast
8:35 AM 53.8 °F 51.3 °F 91% 30.01 in 5.0 mi South 16.1 mph - N/A   Overcast
8:55 AM 53.8 °F 51.3 °F 91% 30.02 in 5.0 mi South 16.1 mph 19.6 mph N/A   Overcast
9:15 AM 54.5 °F 51.4 °F 89% 30.01 in 7.0 mi South 13.8 mph 19.6 mph N/A   Overcast
9:35 AM 55.6 °F 52.0 °F 88% 30.00 in 7.0 mi SSE 17.3 mph - N/A   Overcast
9:55 AM 55.8 °F 51.8 °F 87% 30.00 in 7.0 mi SSE 15.0 mph 20.7 mph N/A   Overcast
10:15 AM 56.5 °F 52.2 °F 85% 30.00 in 7.0 mi SSE 13.8 mph - N/A   Overcast
10:35 AM 57.7 °F 52.3 °F 82% 29.98 in 10.0 mi SSE 15.0 mph 21.9 mph N/A   Mostly Cloudy
10:55 AM 59.4 °F 52.9 °F 79% 29.96 in 10.0 mi South 17.3 mph 23.0 mph N/A   Scattered Clouds
11:15 AM 60.1 °F 53.1 °F 78% 29.96 in 10.0 mi South 17.3 mph 20.7 mph N/A   Clear
11:35 AM 61.7 °F 53.2 °F 74% 29.95 in 10.0 mi South 19.6 mph 24.2 mph N/A   Clear
11:55 AM 63.1 °F 53.8 °F 71% 29.93 in 10.0 mi South 20.7 mph 26.5 mph N/A   Clear
12:15 PM 63.9 °F 53.8 °F 70% 29.92 in 10.0 mi South 18.4 mph 27.6 mph N/A   Clear
12:35 PM 64.2 °F 54.1 °F 70% 29.92 in 10.0 mi South 16.1 mph 26.5 mph N/A   Scattered Clouds
12:55 PM 65.1 °F 54.5 °F 68% 29.91 in 10.0 mi South 19.6 mph 27.6 mph N/A   Scattered Clouds
1:15 PM 63.9 °F 54.5 °F 72% 29.89 in 10.0 mi South 17.3 mph 27.6 mph N/A   Clear
1:35 PM 64.4 °F 54.9 °F 71% 29.89 in 10.0 mi South 12.7 mph 25.3 mph N/A   Clear
1:55 PM 64.9 °F 55.4 °F 71% 29.88 in 10.0 mi South 16.1 mph 21.9 mph N/A   Clear
2:15 PM 65.3 °F 55.4 °F 70% 29.88 in 10.0 mi South 18.4 mph 21.9 mph N/A   Scattered Clouds
2:35 PM 64.4 °F 55.4 °F 73% 29.88 in 10.0 mi South 20.7 mph 25.3 mph N/A   Scattered Clouds
2:55 PM 63.9 °F 55.6 °F 74% 29.87 in 10.0 mi South 16.1 mph 24.2 mph N/A   Mostly Cloudy
3:15 PM 63.5 °F 55.9 °F 76% 29.87 in 10.0 mi South 16.1 mph 23.0 mph N/A   Overcast
3:35 PM 63.1 °F 56.3 °F 78% 29.87 in 10.0 mi South 17.3 mph - N/A   Overcast
3:55 PM 62.8 °F 56.5 °F 80% 29.87 in 10.0 mi South 12.7 mph 18.4 mph N/A   Overcast
4:15 PM 62.6 °F 56.7 °F 81% 29.86 in 10.0 mi South 16.1 mph 20.7 mph N/A   Overcast
4:35 PM 62.4 °F 56.7 °F 81% 29.85 in 10.0 mi South 13.8 mph - N/A   Overcast
4:55 PM 62.1 °F 56.8 °F 83% 29.84 in 10.0 mi SSE 15.0 mph - N/A   Overcast
5:15 PM 62.1 °F 57.2 °F 84% 29.84 in 10.0 mi SSE 15.0 mph - N/A   Overcast
5:35 PM 62.1 °F 57.2 °F 84% 29.83 in 10.0 mi SSE 15.0 mph 19.6 mph N/A   Overcast
5:55 PM 62.1 °F 57.4 °F 85% 29.83 in 10.0 mi South 13.8 mph 20.7 mph N/A   Mostly Cloudy
6:15 PM 62.4 °F 57.7 °F 85% 29.82 in 10.0 mi South 12.7 mph 20.7 mph N/A   Overcast
6:35 PM 62.8 °F 58.1 °F 85% 29.81 in 10.0 mi SSE 17.3 mph 20.7 mph N/A   Overcast
6:55 PM 62.8 °F 58.5 °F 86% 29.81 in 10.0 mi South 17.3 mph 24.2 mph N/A   Overcast
7:15 PM 62.8 °F 58.5 °F 86% 29.81 in 10.0 mi South 18.4 mph 23.0 mph N/A   Overcast
7:35 PM 62.6 °F 58.8 °F 87% 29.81 in 10.0 mi South 18.4 mph 25.3 mph N/A   Light Drizzle
7:55 PM 62.6 °F 59.0 °F 88% 29.81 in 10.0 mi South 13.8 mph 21.9 mph N/A Rain Light Rain
8:15 PM 62.4 °F 59.4 °F 90% 29.82 in 10.0 mi South 17.3 mph 26.5 mph N/A Rain Light Rain
8:35 PM 62.6 °F 59.9 °F 91% 29.81 in 10.0 mi South 17.3 mph - N/A   Overcast
8:55 PM 62.6 °F 60.1 °F 91% 29.80 in 7.0 mi South 16.1 mph 24.2 mph N/A Rain Light Rain
9:15 PM 62.6 °F 60.6 °F 93% 29.77 in 7.0 mi SSE 17.3 mph 23.0 mph 0.01 in Rain Light Rain
9:35 PM 63.1 °F 60.8 °F 92% 29.77 in 10.0 mi South 23.0 mph 29.9 mph 0.01 in Rain Light Rain
9:55 PM 63.5 °F 61.0 °F 91% 29.77 in 10.0 mi South 21.9 mph 26.5 mph 0.02 in Rain Light Rain
10:15 PM 63.5 °F 60.8 °F 91% 29.76 in 10.0 mi South 17.3 mph 26.5 mph N/A Thunderstorm Thunderstorm
10:35 PM 63.5 °F 61.0 °F 91% 29.77 in 10.0 mi South 13.8 mph - N/A Thunderstorm Thunderstorm
10:55 PM 63.9 °F 61.0 °F 90% 29.76 in 10.0 mi South 13.8 mph - N/A Thunderstorm Overcast
11:15 PM 64.4 °F 61.2 °F 89% 29.75 in 10.0 mi South 13.8 mph - N/A Thunderstorm Overcast
11:35 PM 64.4 °F 61.3 °F 90% 29.74 in 10.0 mi South 13.8 mph - N/A Thunderstorm Unknown
11:55 PM 64.4 °F 61.7 °F 91% 29.72 in 7.0 mi South 16.1 mph 27.6 mph 0.01 in Rain , Thunderstorm Light Thunderstorms and Rain